This is the latest recevied weather packets stored in our database for station/object AD7ZD. If no packets are shown the sender has not sent any weather packets the latest 10 day(s).
| Time | Temp. | Humidity | Pressure | Rain* | Wind** | Luminosity | Snow |
|---|---|---|---|---|---|---|---|
| 1778018078 | 16.11° C | 53% | 1010.8 hPa | 0 mm | - | 612 W/m² | - |
| 1778017775 | 16.11° C | 56% | 1010.8 hPa | 0 mm | - | 652 W/m² | - |
| 1778017473 | 16.67° C | 54% | 1011.1 hPa | 0 mm | - | 631 W/m² | - |
| 1778017170 | 15.56° C | 53% | 1011.2 hPa | 0 mm | - | 472 W/m² | - |
| 1778016868 | 15.56° C | 53% | 1011.3 hPa | 0 mm | - | 689 W/m² | - |
| 1778016564 | 15.56° C | 59% | 1011.3 hPa | 0 mm | - | 696 W/m² | - |
| 1778016261 | 14.44° C | 57% | 1011.3 hPa | 0 mm | - | 623 W/m² | - |
| 1778015957 | 14.44° C | 54% | 1011.4 hPa | 0 mm | - | 812 W/m² | - |
| 1778015655 | 15° C | 59% | 1011.6 hPa | 0 mm | - | 757 W/m² | - |
| 1778015351 | 15° C | 58% | 1011.6 hPa | 0 mm | - | 700 W/m² | - |
| 1778015048 | 15° C | 55% | 1011.4 hPa | 0 mm | - | 779 W/m² | - |
| 1778014745 | 14.44° C | 60% | 1011.6 hPa | 0 mm | - | 858 W/m² | - |
| 1778014444 | 13.89° C | 58% | 1011.6 hPa | 0 mm | - | 828 W/m² | - |
| 1778014140 | 13.89° C | 60% | 1011.6 hPa | 0 mm | - | 758 W/m² | - |
| 1778013838 | 14.44° C | 62% | 1011.7 hPa | 0 mm | - | 542 W/m² | - |
| 1778013535 | 15° C | 61% | 1011.7 hPa | 0 mm | - | 499 W/m² | - |
| 1778013231 | 14.44° C | 62% | 1011.9 hPa | 0 mm | - | 646 W/m² | - |
| 1778012928 | 13.33° C | 65% | 1011.8 hPa | 0 mm | - | 699 W/m² | - |
| 1778012624 | 14.44° C | 64% | 1011.7 hPa | 0 mm | - | 470 W/m² | - |
| 1778012321 | 13.89° C | 62% | 1011.8 hPa | 0 mm | - | 573 W/m² | - |
| 1778012018 | 13.33° C | 66% | 1011.7 hPa | 0 mm | - | 446 W/m² | - |
| 1778011716 | 12.78° C | 68% | 1011.4 hPa | 0 mm | - | 449 W/m² | - |
| 1778011413 | 12.78° C | 67% | 1011.6 hPa | 0 mm | - | 365 W/m² | - |
| 1778011108 | 13.33° C | 68% | 1011.7 hPa | 0 mm | - | 383 W/m² | - |
| 1778010806 | 12.78° C | 68% | 1011.8 hPa | 0 mm | - | 422 W/m² | - |
* Rain latest hour (hover to see other rain measurements)
** Current wind speed in m/s (hover to see current wind gust speed)